KD5HIA Weather Reports


Display with metric or nautical units.
time (UTC)temp
F
wind
direction
speed
MPH
gust
MPH
rain 1hr
in
rain 24hr
in
rain mn
in
humidity
%
barometer
mb
20260831131516 76 203 5.0 10.0 0.00 0.00 0.00 74 1016.3
20260831130516 76 203 4.0 8.0 0.00 0.00 0.00 75 1016.3
20260831125516 76 203 6.0 10.0 0.00 0.00 0.00 75 1016.1
20260831124516 75 203 5.0 11.0 0.00 0.00 0.00 76 1016.0
20260831123516 75 203 7.0 12.0 0.00 0.00 0.00 75 1016.0
20260831122516 75 203 8.0 13.0 0.00 0.00 0.00 75 1015.8
20260831121516 75 203 9.0 19.0 0.00 0.00 0.00 74 1015.7
20260831120516 75 180 7.0 11.0 0.00 0.00 0.00 74 1015.7
20260831115516 76 180 8.0 15.0 0.00 0.00 0.00 73 1015.6
20260831114516 76 180 10.0 16.0 0.00 0.00 0.00 72 1015.6
20260831113516 76 180 9.0 14.0 0.00 0.00 0.00 72 1015.7
20260831112516 76 180 8.0 16.0 0.00 0.00 0.00 72 1015.7
20260831111516 76 180 8.0 13.0 0.00 0.00 0.00 71 1015.7
20260831110516 76 180 8.0 12.0 0.00 0.00 0.00 71 1015.6
20260831105516 77 180 9.0 15.0 0.00 0.00 0.00 71 1015.6
20260831104516 77 180 9.0 14.0 0.00 0.00 0.00 70 1015.7
20260831103516 77 158 8.0 14.0 0.00 0.00 0.00 70 1015.8
20260831102516 77 180 8.0 13.0 0.00 0.00 0.00 69 1015.8
20260831101516 78 180 10.0 19.0 0.00 0.00 0.00 69 1015.8
20260831100516 78 180 9.0 16.0 0.00 0.00 0.00 68 1015.8
20260831095516 78 180 9.0 16.0 0.00 0.00 0.00 68 1015.8
20260831094516 78 180 9.0 15.0 0.00 0.00 0.00 68 1015.8
20260831093516 78 180 9.0 16.0 0.00 0.00 0.00 67 1015.8
20260831092516 78 180 9.0 15.0 0.00 0.00 0.00 67 1015.8
20260831091516 78 180 10.0 15.0 0.00 0.00 0.00 67 1015.8
20260831090516 78 180 8.0 15.0 0.00 0.00 0.00 66 1015.8
20260831085516 79 158 9.0 15.0 0.00 0.00 0.00 66 1015.7
20260831084516 79 180 6.0 10.0 0.00 0.00 0.00 65 1015.8
20260831083516 79 180 8.0 12.0 0.00 0.00 0.00 65 1015.7
20260831082519 79 180 8.0 15.0 0.00 0.00 0.00 63 1015.5
20260831081520 79 180 7.0 15.0 0.00 0.00 0.00 63 1015.6
20260831080520 79 158 7.0 11.0 0.00 0.00 0.00 63 1015.5
20260831075516 80 158 8.0 12.0 0.00 0.00 0.00 62 1015.7
20260831074516 80 158 8.0 14.0 0.00 0.00 0.00 60 1015.6
20260831073516 80 158 10.0 15.0 0.00 0.00 0.00 59 1015.5
20260831072516 81 158 10.0 15.0 0.00 0.00 0.00 58 1015.5
20260831071516 80 158 8.0 14.0 0.00 0.00 0.00 58 1015.4
20260831070516 81 180 6.0 10.0 0.00 0.00 0.00 57 1015.3
20260831065516 81 180 7.0 12.0 0.00 0.00 0.00 56 1015.3
20260831064516 81 180 7.0 11.0 0.00 0.00 0.00 55 1015.2
20260831063516 82 180 8.0 13.0 0.00 0.00 0.00 55 1015.4
20260831062516 82 158 8.0 14.0 0.00 0.00 0.00 54 1015.4
20260831061516 83 180 9.0 14.0 0.00 0.00 0.00 54 1015.5
20260831060516 83 158 8.0 15.0 0.00 0.00 0.00 53 1015.4
20260831055516 83 158 11.0 17.0 0.00 0.00 0.00 53 1015.3
20260831054516 83 158 10.0 14.0 0.00 0.00 0.00 53 1015.4
20260831053516 83 158 11.0 15.0 0.00 0.00 0.00 52 1015.1
20260831052516 83 158 9.0 16.0 0.00 0.00 0.00 52 1015.1
20260831051516 84 158 9.0 15.0 0.00 0.00 0.00 52 1015.3
20260831050516 84 158 9.0 14.0 0.00 0.00 0.00 52 1015.1
20260831045516 84 158 9.0 13.0 0.00 0.00 0.00 52 1015.1
20260831044516 85 158 9.0 16.0 0.00 0.00 0.00 51 1015.2
20260831043516 85 158 9.0 14.0 0.00 0.00 0.00 51 1015.1
20260831042516 85 158 10.0 14.0 0.00 0.00 0.00 50 1015.1
20260831041516 85 158 10.0 15.0 0.00 0.00 0.00 50 1015.2
20260831040516 86 158 11.0 16.0 0.00 0.00 0.00 49 1015.0
20260831035516 86 158 10.0 19.0 0.00 0.00 0.00 49 1015.0
20260831034516 86 158 11.0 17.0 0.00 0.00 0.00 48 1014.9
20260831033516 86 158 9.0 17.0 0.00 0.00 0.00 47 1014.6
20260831032516 87 158 9.0 12.0 0.00 0.00 0.00 45 1014.6
20260831031516 87 158 9.0 13.0 0.00 0.00 0.00 43 1014.4
20260831030516 87 158 9.0 13.0 0.00 0.00 0.00 42 1014.0
20260831025516 88 158 9.0 12.0 0.00 0.00 0.00 41 1014.1
20260831024516 88 135 9.0 14.0 0.00 0.00 0.00 40 1013.8
20260831023516 88 135 8.0 11.0 0.00 0.00 0.00 40 1013.3
20260831022516 88 135 7.0 12.0 0.00 0.00 0.00 39 1013.1
20260831021516 88 135 7.0 11.0 0.00 0.00 0.00 38 1013.0
20260831020516 89 135 7.0 11.0 0.00 0.00 0.00 38 1012.9
20260831015516 89 135 7.0 10.0 0.00 0.00 0.00 38 1012.9
20260831014516 90 135 8.0 11.0 0.00 0.00 0.00 37 1012.9
20260831013516 89 135 4.0 7.0 0.00 0.00 0.00 38 1012.5
20260831012516 90 135 4.0 5.0 0.00 0.00 0.00 38 1012.4
20260831011516 91 135 5.0 8.0 0.00 0.00 0.00 36 1012.5
20260831010516 92 135 7.0 9.0 0.00 0.00 0.00 35 1012.3
20260831005516 92 135 5.0 8.0 0.00 0.00 0.00 36 1012.3
20260831004516 93 135 4.0 7.0 0.00 0.00 0.00 35 1012.3
20260831003517 95 135 7.0 10.0 0.00 0.00 0.00 33 1012.3
20260831002516 96 135 10.0 15.0 0.00 0.00 0.00 32 1012.3
20260831001516 96 135 10.0 14.0 0.00 0.00 0.00 32 1012.4
20260831000516 97 135 8.0 12.0 0.00 0.00 0.00 31 1012.3
20260830235516 97 113 9.0 15.0 0.00 0.00 0.00 31 1012.4
20260830234516 97 135 7.0 12.0 0.00 0.00 0.00 31 1012.4
20260830233516 98 135 4.0 9.0 0.00 0.00 0.00 30 1012.5
20260830232516 98 135 5.0 10.0 0.00 0.00 0.00 30 1012.8
20260830231516 98 158 6.0 11.0 0.00 0.00 0.00 29 1012.7
20260830230516 98 180 4.0 9.0 0.00 0.00 0.00 31 1012.6
20260830225516 98 203 4.0 11.0 0.00 0.00 0.00 31 1012.8
20260830224516 97 180 3.0 6.0 0.00 0.00 0.00 32 1012.7
20260830223516 99 158 6.0 10.0 0.00 0.00 0.00 31 1012.9
20260830222516 99 158 4.0 6.0 0.00 0.00 0.00 31 1013.1
20260830221516 99 90 4.0 11.0 0.00 0.00 0.00 29 1013.0
20260830220516 99 135 7.0 14.0 0.00 0.00 0.00 32 1013.1
20260830215516 99 158 2.0 6.0 0.00 0.00 0.00 31 1013.2
20260830214516 99 158 7.0 12.0 0.00 0.00 0.00 32 1013.4
20260830213516 99 135 7.0 14.0 0.00 0.00 0.00 33 1013.4
20260830212516 99 90 4.0 11.0 0.00 0.00 0.00 31 1013.5
20260830211516 99 135 6.0 11.0 0.00 0.00 0.00 31 1013.7
20260830210516 99 90 4.0 9.0 0.00 0.00 0.00 31 1014.0
20260830205516 99 135 5.0 10.0 0.00 0.00 0.00 32 1014.2
20260830204516 99 158 8.0 13.0 0.00 0.00 0.00 33 1014.4
20260830203516 98 158 3.0 7.0 0.00 0.00 0.00 32 1014.5
20260830202516 98 158 6.0 10.0 0.00 0.00 0.00 33 1014.8
20260830201516 98 113 2.0 5.0 0.00 0.00 0.00 32 1014.8
20260830200516 99 180 7.0 15.0 0.00 0.00 0.00 33 1015.1
20260830195519 97 113 7.0 12.0 0.00 0.00 0.00 34 1015.1
20260830194520 97 158 5.0 12.0 0.00 0.00 0.00 34 1015.2
20260830193519 97 135 2.0 9.0 0.00 0.00 0.00 35 1015.3
20260830192516 97 68 4.0 9.0 0.00 0.00 0.00 35 1015.5
20260830191516 97 158 6.0 13.0 0.00 0.00 0.00 36 1015.6
20260830190516 96 135 6.0 13.0 0.00 0.00 0.00 35 1015.7
20260830185516 97 113 4.0 8.0 0.00 0.00 0.00 36 1015.8
20260830184516 94 180 5.0 10.0 0.00 0.00 0.00 40 1015.8
20260830183516 95 158 5.0 8.0 0.00 0.00 0.00 39 1016.1
20260830182516 94 225 3.0 9.0 0.00 0.00 0.00 42 1016.2
20260830181516 95 158 7.0 11.0 0.00 0.00 0.00 39 1016.5
20260830180516 94 180 5.0 10.0 0.00 0.00 0.00 44 1016.8
20260830175516 93 180 4.0 9.0 0.00 0.00 0.00 44 1016.8
20260830174517 94 135 6.0 10.0 0.00 0.00 0.00 43 1017.1
20260830173516 92 203 5.0 8.0 0.00 0.00 0.00 45 1017.1
20260830172516 93 203 6.0 10.0 0.00 0.00 0.00 47 1017.4
20260830171517 93 180 6.0 13.0 0.00 0.00 0.00 47 1017.4
20260830170516 92 180 8.0 13.0 0.00 0.00 0.00 48 1017.5
20260830165516 91 203 6.0 10.0 0.00 0.00 0.00 50 1017.6
20260830164516 91 203 6.0 11.0 0.00 0.00 0.00 50 1017.7
20260830163516 90 180 7.0 14.0 0.00 0.00 0.00 50 1017.7
20260830162516 89 180 8.0 14.0 0.00 0.00 0.00 53 1017.6
20260830161516 90 180 6.0 12.0 0.00 0.00 0.00 54 1017.8
20260830160516 89 180 7.0 14.0 0.00 0.00 0.00 56 1017.7
20260830155516 88 203 6.0 15.0 0.00 0.00 0.00 57 1017.8
20260830154516 88 158 8.0 14.0 0.00 0.00 0.00 57 1017.8
20260830153516 86 203 8.0 15.0 0.00 0.00 0.00 59 1017.8
20260830152516 86 180 6.0 10.0 0.00 0.00 0.00 62 1017.9
20260830151516 85 180 5.0 8.0 0.00 0.00 0.00 64 1017.7
20260830150516 84 203 4.0 9.0 0.00 0.00 0.00 64 1017.8
20260830145516 83 203 3.0 6.0 0.00 0.00 0.00 67 1017.8
20260830144516 82 180 3.0 6.0 0.00 0.00 0.00 68 1017.7
20260830143516 82 203 3.0 7.0 0.00 0.00 0.00 70 1018.0
20260830142517 80 203 5.0 10.0 0.00 0.00 0.00 72 1017.8
20260830141516 79 203 5.0 10.0 0.00 0.00 0.00 72 1017.8
20260830140516 79 203 5.0 9.0 0.00 0.00 0.00 73 1017.8
20260830135516 78 225 4.0 9.0 0.00 0.00 0.00 74 1017.7
20260830134516 78 203 3.0 7.0 0.00 0.00 0.00 75 1017.7
20260830133516 77 203 5.0 8.0 0.00 0.00 0.00 76 1017.7
20260830132516 76 203 4.0 8.0 0.00 0.00 0.00 77 1017.4